Tracking 18840 objects as of 17-November-2017
HD Live streaming from Space Station
objects crossing your sky now

FENGYUN 1C DEB

Track FENGYUN 1C DEB now!
10-day predictions


NORAD ID: 30245
Int'l Code: 1999-025XE
Perigee: 842.7 km
Apogee: 1,146.2 km
Inclination: 99.0 °
Period: 104.8 minutes
Semi major axis: 7365 km
RCS: 0.0424 m2 (small)
Launch date: May 10, 1999
Source: People's Republic of China (PRC)
Launch site: Taiyaun Space Center, China (TSC)

Note: This is SATELLITE DEBRIS
aabbcc
Your satellite tracking list
Your tracking list is empty




NASA's NSSDC Master Catalog

Two Line Element Set (TLE):
1 30245U 99025XE  17320.91703128 +.00000289 +00000-0 +30317-3 0  9999
2 30245 098.9624 089.1675 0206024 159.5388 324.0363 13.73418380541833
Source of the keplerian elements: AFSPC